This is the latest recevied weather packets stored in our database for station/object KK7RJD. If no packets are shown the sender has not sent any weather packets the latest 10 day(s).
| Time | Temp. | Humidity | Pressure | Rain* | Wind** | Luminosity | Snow |
|---|---|---|---|---|---|---|---|
| 1777055085 | 0.56° C | 68% | 1013 hPa | 0 mm | - | 538 W/m² | - |
| 1777054780 | 0° C | 69% | 1013 hPa | 0 mm | - | 1038 W/m² | - |
| 1777054477 | 0° C | 69% | 1013.3 hPa | 0 mm | - | 1018 W/m² | - |
| 1777054175 | -0.56° C | 69% | 1013 hPa | 0 mm | - | 808 W/m² | - |
| 1777053872 | -0.56° C | 68% | 1013.2 hPa | 0 mm | - | 745 W/m² | - |
| 1777053567 | -0.56° C | 71% | 1013.3 hPa | 0 mm | - | 713 W/m² | - |
| 1777053262 | -1.11° C | 72% | 1013.2 hPa | 0 mm | - | 414 W/m² | - |
| 1777052959 | -1.11° C | 69% | 1012.9 hPa | 0 mm | - | 320 W/m² | - |
| 1777052655 | -1.11° C | 69% | 1013.2 hPa | 0 mm | - | 332 W/m² | - |
| 1777052355 | -1.11° C | 71% | 1013.2 hPa | 0 mm | - | 340 W/m² | - |
| 1777052052 | -1.11° C | 69% | 1013 hPa | 0 mm | - | 344 W/m² | - |
| 1777051749 | -1.11° C | 70% | 1013 hPa | 0 mm | - | 345 W/m² | - |
| 1777051444 | -1.11° C | 70% | 1013.2 hPa | 0 mm | - | 350 W/m² | - |
| 1777051141 | -1.11° C | 68% | 1012.9 hPa | 0 mm | - | 343 W/m² | - |
| 1777050836 | -1.11° C | 69% | 1013 hPa | 0 mm | - | 358 W/m² | - |
| 1777050532 | -1.11° C | 70% | 1012.8 hPa | 0 mm | - | 374 W/m² | - |
| 1777050230 | -1.11° C | 68% | 1012.7 hPa | 0 mm | - | 382 W/m² | - |
| 1777049927 | -1.11° C | 68% | 1012.6 hPa | 0 mm | - | 342 W/m² | - |
| 1777049621 | -1.11° C | 68% | 1012.8 hPa | 0 mm | - | 342 W/m² | - |
| 1777049319 | -1.11° C | 68% | 1012.8 hPa | 0 mm | - | 347 W/m² | - |
| 1777049016 | -1.11° C | 70% | 1012.7 hPa | 0 mm | - | 351 W/m² | - |
* Rain latest hour (hover to see other rain measurements)
** Current wind speed in m/s (hover to see current wind gust speed)